Zurück zum Katalog

STARLINK-35383

AktivKommunikationSSO
NORAD 65793·PAYLOAD·🇺🇸 United States

Gestartet Sep 26, 2025 von Vandenberg Space Force Base

Loading…

Nächste Überflüge (nächste 24 Stunden)

TLE

AktuellSource: CelesTrak SupGP

Epoche: Sep 14, 2026, 20:55 UTC

1 65793C 25218C   26257.87201389 -.00152080  00000+0 -47207-2 0  2574
2 65793  97.2846 115.3414 0001763  93.1365 207.9621 15.33517413    12

Verfolge STARLINK-35383 in Echtzeit mit AllMySat

Download on the App Store